Weather History for LKTB - September, 2013

Change the Weather History Date:

Tuesday, September 10, 2013

  Actual Average Record
Temperature  
Mean Temperature 58 °F -  
Max Temperature 72 °F 64 °F - ()
Min Temperature 43 °F 46 °F - ()
Degree Days  
Heating Degree Days 8    
Growing Degree Days 8 (Base 50)    
Moisture  
Dew Point 50 °F    
Average Humidity 75    
Maximum Humidity 93    
Minimum Humidity 37    
Precipitation  
Precipitation 0.20 in 0.05 in - ()
Sea Level Pressure  
Sea Level Pressure 30.01 in    
Wind  
Wind Speed 6 mph ()    
Max Wind Speed 23 mph    
Max Gust Speed 31 mph    
Visibility 7.2 miles    
Events Rain    
T = Trace of Precipitation, MM = Missing Value Source: Averaged Metar Reports

Daily Weather History Graph

Daily Weather History Graph

Search for Another Location

Airport or City:

Trip Planner

Search our weather history database for the weather conditions in past years. The results will help you decide how hot, cold, wet, or windy it might be!

Date:

Astronomy

Sep. 10, 2013 Rise Set
Actual Time 6:22 AM CEST 7:16 PM CEST
Civil Twilight 5:50 AM CEST 7:49 PM CEST
Nautical Twilight 5:11 AM CEST 8:27 PM CEST
Astronomical Twilight 4:30 AM CEST 9:08 PM CEST
Moon 11:59 AM CEST (9/10) 9:34 PM CEST (9/10)
Length of Visible Light 13h 59m
Length of Day
12h 54m
Waxing Crescent, 25% of the Moon is Illuminated
Sep 10
Waxing Crescent
Sep 12
First Quarter
Sep 19
Full
Sep 27
Last Quarter
Oct 5
New

Hourly Weather History & Observations

Time (CEST) Temp. Windchill Dew Point Humidity Pressure Visibility Wind Dir Wind Speed Gust Speed Precip Events Conditions
12:00 AM 53.6 °F - 48.2 °F 82% 30.09 in - Variable 2.3 mph - N/A   Clear
12:30 AM 50.0 °F - 46.4 °F 87% 30.09 in - Variable 1.2 mph - N/A   Clear
1:00 AM 51.8 °F - 44.6 °F 76% 30.09 in - Variable 2.3 mph - N/A   Clear
1:30 AM 51.8 °F - 46.4 °F 82% 30.09 in - West 2.3 mph - N/A   Clear
2:00 AM 50 °F - 45 °F 78% 30.12 in 19 mi West 2.2 mph - -  
2:00 AM 50.0 °F - 44.6 °F 82% 30.09 in - WSW 2.3 mph - N/A   Clear
2:30 AM 46.4 °F 45.2 °F 42.8 °F 87% 30.09 in - ESE 3.5 mph - N/A   Clear
3:00 AM 46.4 °F - 44.6 °F 93% 30.09 in - Variable 2.3 mph - N/A   Clear
3:30 AM 48.2 °F - 46.4 °F 93% 30.09 in - Variable 2.3 mph - N/A   Clear
4:00 AM 46.4 °F 43.5 °F 44.6 °F 93% 30.09 in - NNE 5.8 mph - N/A   Clear
4:30 AM 48.2 °F - 44.6 °F 87% 30.09 in - NE 5.8 mph - N/A   Clear
5:00 AM 44.6 °F - 41.0 °F 87% 30.09 in - Variable 2.3 mph - N/A   Clear
5:30 AM 46.4 °F - 44.6 °F 93% 30.06 in - North 2.3 mph - N/A   Clear
6:00 AM 46.4 °F 45.2 °F 44.6 °F 93% 30.06 in - North 3.5 mph - N/A   Clear
6:30 AM 46.4 °F - 44.6 °F 93% 30.06 in - North 2.3 mph - N/A   Clear
7:00 AM 46.4 °F 45.2 °F 44.6 °F 93% 30.06 in - NE 3.5 mph - N/A   Clear
7:30 AM 46.4 °F - 44.6 °F 93% 30.06 in - Variable 1.2 mph - N/A   Clear
8:00 AM 50 °F - 46 °F 81% 30.09 in 16 mi ENE 4.5 mph - -   Scattered Clouds
8:00 AM 50.0 °F - 46.4 °F 87% 30.06 in - ENE 3.5 mph - N/A   Clear
8:30 AM 51.8 °F - 46.4 °F 82% 30.06 in - ENE 5.8 mph - N/A   Clear
9:00 AM 53.6 °F - 50.0 °F 88% 30.06 in - East 5.8 mph - N/A   Clear
9:30 AM 55.4 °F - 50.0 °F 82% 30.06 in - East 5.8 mph - N/A   Clear
10:00 AM 59.0 °F - 51.8 °F 77% 30.06 in 6.2 mi ESE 8.1 mph - N/A   Partly Cloudy
10:30 AM 60.8 °F - 53.6 °F 77% 30.04 in - SE 9.2 mph - N/A   Clear
11:00 AM 59.0 °F - 53.6 °F 82% 30.04 in - SE 10.4 mph - N/A   Clear
11:30 AM 60.8 °F - 53.6 °F 77% 30.04 in - SSE 9.2 mph - N/A   Clear
12:00 PM 64.4 °F - 55.4 °F 73% 30.04 in 6.2 mi SE 9.2 mph - N/A   Partly Cloudy
12:30 PM 64.4 °F - 55.4 °F 73% 30.01 in 6.2 mi SE 8.1 mph - N/A   Scattered Clouds
1:00 PM 69.8 °F - 55.4 °F 60% 30.01 in 6.2 mi South 10.4 mph - N/A   Scattered Clouds
1:30 PM 69.8 °F - 53.6 °F 56% 29.98 in 6.2 mi South 8.1 mph - N/A   Partly Cloudy
2:00 PM 71 °F - 51 °F 37% 29.96 in 19 mi SSE 13.4 mph - -   Scattered Clouds
2:00 PM 69.8 °F - 51.8 °F 53% 29.98 in - SSE 11.5 mph - N/A   Clear
2:30 PM 71.6 °F - 51.8 °F 50% 29.98 in 6.2 mi SSE 11.5 mph - N/A   Partly Cloudy
3:00 PM 71.6 °F - 53.6 °F 53% 29.95 in 6.2 mi South 10.4 mph - N/A   Partly Cloudy
3:30 PM 69.8 °F - 53.6 °F 56% 29.95 in - South 9.2 mph - N/A   Clear
4:00 PM 69.8 °F - 55.4 °F 60% 29.95 in 6.2 mi SE 12.7 mph - N/A   Partly Cloudy
4:30 PM 69.8 °F - 53.6 °F 56% 29.92 in 6.2 mi SE 12.7 mph - N/A   Partly Cloudy
5:00 PM 69.8 °F - 55.4 °F 60% 29.92 in - SSE 11.5 mph - N/A   Clear
5:30 PM 69.8 °F - 55.4 °F 60% 29.92 in 6.2 mi SE 13.8 mph - N/A   Scattered Clouds
6:00 PM 68.0 °F - 55.4 °F 64% 29.92 in 6.2 mi ESE 13.8 mph - N/A   Mostly Cloudy
6:30 PM 66.2 °F - 55.4 °F 68% 29.92 in 6.2 mi ESE 12.7 mph - N/A   Mostly Cloudy
7:00 PM 66.2 °F - 53.6 °F 64% 29.92 in 6.2 mi ESE 11.5 mph - N/A   Partly Cloudy
7:30 PM 66.2 °F - 55.4 °F 68% 29.89 in 6.2 mi ESE 12.7 mph - N/A   Mostly Cloudy
8:00 PM 66 °F - 53 °F 54% 29.90 in 22 mi ESE 8.9 mph - -   Mostly Cloudy
8:00 PM 66.2 °F - 53.6 °F 64% 29.92 in 6.2 mi ESE 11.5 mph - N/A   Mostly Cloudy
8:30 PM 64.4 °F - 53.6 °F 68% 29.92 in 6.2 mi ESE 9.2 mph - N/A   Mostly Cloudy
9:00 PM 64.4 °F - 53.6 °F 68% 29.92 in 6.2 mi ESE 10.4 mph - N/A   Mostly Cloudy
9:30 PM 64.4 °F - 55.4 °F 73% 29.92 in 5.0 mi SE 10.4 mph - N/A   Mostly Cloudy
9:35 PM 60.8 °F - 48.2 °F 63% 29.95 in 3.1 mi NW 23.0 mph - N/A Rain Light Rain
10:00 PM 55.4 °F - 51.8 °F 88% 29.95 in 3.1 mi NW 19.6 mph 31.1 mph N/A Rain Rain
10:30 PM 55.4 °F - 51.8 °F 88% 29.98 in 3.1 mi NW 15.0 mph - N/A Rain Light Rain
11:00 PM 55.4 °F - 51.8 °F 88% 29.98 in 6.2 mi NW 11.5 mph - N/A Rain Light Rain
11:30 PM 55.4 °F - 51.8 °F 88% 29.98 in 6.2 mi West 9.2 mph - N/A Rain Light Rain